CZ-6A DEB, 61458

Orbit data source: Space-Track

CZ-6A DEB, 61458 is space debris in LEO originally from a launch on Tue, 06 Aug 2024 UTC launched from the Taiyaun Space Center, China (TSC). Debris objects in space refer to the collection of defunct objects orbiting the Earth. Examples of debris include non-operational satellites, rocket bodies, and fragments generated from explosions, collisions, or faulty payload assembly.

Loading next visibility...
Identifier
61458, 2024-140ZQ
Orbit
LEO
Country
Flag of CNCN / PRC
Related business
Manufacturer
SAST
Mission
Spacecraft
Bus & Motor
Unknown
Mass
Unknown
Launch date (UTC)
2024-08-06 (2 years ago)
Launch vehicle
Unknown
Launch site
Taiyaun Space Center, China (TSC)
Object type
Payload
Rocket body
Debris
Shape & HBR
Unknown shape, 0.1 m
Radar Cross Section
Small (<0.1 m²)

Expand to show TLE details & history
Last TLE update: 2 days ago

TLE from 2 days ago
0 CZ-6A DEB
1 61458U 24140ZQ  26169.53219733  .00014033  00000-0  12215-2 0  9996
2 61458  88.9383 261.4817 0118419 115.2757 246.0799 14.91507311 97483
Epoch: 2026-06-18T12:46Z
TLE epoch observation values (Epoch: 2026-06-18T12:46:21.849Z)
Latitude
-0.00005°
Longitude
163.11649°
Altitude
630.682 km
Speed
7.524 km/s
True Right ascension
17h 25m 55s
True Declination
0° 00' 00"
Sunlit
Object was in full shadow at epoch
Visualization orbit readout
Latitude
Unknown
Longitude
Unknown
Altitude
Unknown
Speed
Unknown
Apparent Right ascension
Unknown
Apparent Declination
Unknown
Sunlit
N/A
Visualization observer readout
Local Sidereal Time
08:42:13
Azimuth
Unknown
Elevation
Unknown
Doppler factor
Unknown
Orbital elements
Apogee altitude
672.601 km
Perigee altitude
507.567 km
Semi-major axis
6,968.221 km
Eccentricity
0.01184
Inclination
88.9383°
RAAN
261.4817°
Arg. of periapsis
115.2757°
True anomaly
244.84696°
Mean anomaly
246.0799°
Eccentric anomaly
245.46268°
Mean motion
3.7313 °/min
Orbital period
96.48 mins
BSTAR
0.0012215
Loading maneuver chart data...
Computing Atmospheric mass density...
Loading historical data...
Loading historical data...
Loading historical data...
Loading historical data...
Loading historical data...
Loading historical data...
Loading historical data...

Documentation

Showing up to 5 results
|